Hourly Weather Roundup
Issued by NWS Central Illinois

Home | Current Version | Previous Version | Text Only | Print | Product List | Glossary Off
Versions: 1 2 3 4 5 6 7 8 9 10 11 12 13 14 15 16 17 18 19 20 21 22 23 24 25 26 27 28 29 30 31 32 33 34 35 36 37 38 39 40 41 42 43 44 45 46 47 48 49 50

000
NZUS43 KILX 112110
HWRILX

AREA WEATHER ROUNDUP
NATIONAL WEATHER SERVICE, LINCOLN IL
400 PM CDT FRI JUL 11 2014


CITY           SKY/WX    TMP DP  RH WIND       PRES   REMARKS
BLOOMINGTON    MOSUNNY   80  62  54 S13       30.14F HX  81
CHAMPAIGN      PTSUNNY   82  60  47 SW5       30.15F HX  82
DECATUR        MOSUNNY   83  61  47 SE7       30.14F HX  83
EFFINGHAM      MOSUNNY   85  55  34 SE5       30.14F HX  84
FLORA          SUNNY     86  60  42 SW9       30.14F HX  85
GALESBURG      PTSUNNY   83  69  61 S8        30.09R HX  87
JACKSONVILLE   PTSUNNY   84  69  59 SE12      30.11F HX  88
LACON          PTSUNNY   80  62  54 SE10      30.09F HX  81
LAWRENCEVILLE  SUNNY     87  56  34 VRB5      30.14F HX  85
LITCHFIELD     MOSUNNY   83  65  54 SE9G16    30.12F HX  85
$$


CITY           SKY/WX    TMP DP  RH WIND       PRES   REMARKS
LINCOLN        MOSUNNY   85  63  48 S7        30.09F HX  85
MACOMB         PTSUNNY   80  66  64 SE13G22   30.10F HX  82
MATTOON        MOSUNNY   84  58  40 S9        30.14F HX  83
MT CARMEL AP   SUNNY     90  55  31 SE5       30.14F HX  88
OLNEY-NOBLE AP SUNNY     84  61  45 CALM      30.13F HX  84
PARIS          SUNNY     82  60  47 S3        30.16F HX  82
PEORIA         MOSUNNY   83  64  52 S15G21    30.10F HX  84
PONTIAC        MOSUNNY   81  61  50 S7        30.12F HX  81
RANTOUL        PTSUNNY   82  55  39 SE5       30.16F HX  81
ROBINSON       SUNNY     87  57  36 SW3       30.15F HX  86
SPRINGFIELD    MOSUNNY   85  66  53 S9G17     30.11F HX  87
TAYLORVILLE    MOSUNNY   79  64  61 S7        30.12F HX  81
$$

...REGIONAL REPORTS...


CITY           SKY/WX    TMP DP  RH WIND       PRES   REMARKS
CHICAGO O`HARE LGT RAIN  77  53  43 S8        30.13F
KANKAKEE       PTSUNNY   80  61  53 SE7       30.15S HX  81
MOLINE         MOSUNNY   80  66  62 SE14G20   30.06F HX  82
MOUNT VERNON   SUNNY     88  64  45 S8        30.13F HX  89
PITTSFIELD     PTSUNNY   84  70  61 SE8       30.10S HX  88
QUINCY         PTSUNNY   84  69  60 S15       30.06F HX  88
ROCKFORD       CLOUDY    75  56  51 S12       30.11F
$$


CITY           SKY/WX    TMP DP  RH WIND       PRES   REMARKS
BURLINGTON     CLOUDY    80  67  64 S9        30.06F HX  82
CEDAR RAPIDS   CLOUDY    75  66  73 SE9       30.02F
DES MOINES     CLOUDY    78  71  79 NW3       30.02R HX  80
KIRKSVILLE     CLOUDY    84  72  67 S8        30.05S HX  89
OTTUMWA        LGT RAIN  74  70  87 SE17      29.98F
ST LOUIS       PTSUNNY   89  68  49 S8        30.09F HX  93
$$


CITY           SKY/WX    TMP DP  RH WIND       PRES   REMARKS
TERRE HAUTE    SUNNY     82  59  45 S6        30.16F HX  82
EVANSVILLE     MOSUNNY   87  59  38 S5        30.14F HX  86
INDIANAPOLIS   MOSUNNY   79  56  45 S6        30.16F HX  80
LAFAYETTE      SUNNY     80  56  43 S8        30.15F HX  80
MADISON        CLOUDY    75  56  51 S13       30.09R
MILWAUKEE      LGT RAIN  72  52  49 SE12      30.11F
$$





USA.gov is the U.S. government's official web portal to all federal, state and local government web resources and services.